Location: *
(42.4613°S, 176.9107°E)
Time: 23:38:24
(UTC+00:00)

Daily predictions for brighter satellites

Satellite Brightness Start Highest point End
(mag) Time Altitude Azimuth Time Altitude Azimuth Time Altitude Azimuth
ATLAS 3B R/B 4.3 15:16:03 28° E 15:16:03 28° E 15:19:20 10° ENE
ATLAS 2AS CENTAUR R/B 4.5 15:23:14 21° SE 15:23:14 21° SE 15:25:13 10° SE
COSMOS 2428 4.1 15:54:44 34° ENE 15:54:44 34° ENE 15:58:17 10° NE
USA 215 4.4 15:58:38 10° ESE 16:04:42 37° NE 16:06:53 30° NNE
CZ-4C R/B 4.4 16:12:00 19° S 16:12:00 19° S 16:14:43 10° SSE
Envisat 4.1 16:12:59 10° NE 16:17:46 42° ESE 16:20:11 26° SSE
Cosmos 2251 Rocket 4.5 16:18:52 42° NE 16:19:45 46° ENE 16:24:53 10° SSE
Cosmos 2219 Rocket 3.2 16:25:49 35° NNE 16:25:49 35° NNE 16:28:58 10° NNE
USA 306 4.3 16:31:21 38° E 16:31:21 38° E 16:34:17 10° ESE
USA 267 4.4 16:32:13 10° E 16:38:01 35° SSE 16:40:47 25° SSW
NOSS 0 Rocket 4.2 16:37:23 32° S 16:40:23 65° ESE 16:46:30 10° NE
Lacrosse 5 rocket 3.5 16:41:32 18° SSE 16:41:32 18° SSE 16:44:23 10° ESE
USA 281 4.4 16:43:01 10° S 16:46:36 25° SSW 16:46:36 25° SSW
Cosmos 1464 Rocket 4.4 16:42:29 10° N 16:48:43 63° E 16:55:06 10° SSE
Meteor 1-11 4.1 16:48:26 51° SSW 16:49:55 76° W 16:55:43 10° N
Cosmos 2333 Rocket 3.6 16:55:08 25° NNW 16:55:08 25° NNW 16:57:37 10° N
USA 307 3.0 16:55:33 74° E 16:55:33 74° E 16:59:37 10° SE
Cosmos 44 Rocket 3.6 16:59:21 31° N 17:01:30 63° ENE 17:06:09 10° SE
Cosmos 1992 Rocket 4.0 17:02:50 58° WNW 17:02:50 58° WNW 17:07:43 10° N
Cosmos 405 4.0 17:03:49 39° SSE 17:03:49 39° SSE 17:06:13 10° SSE
Cosmos 2228 3.0 17:00:12 20° N 17:03:14 87° E 17:07:44 10° S
Cosmos 1892 3.6 17:00:50 18° S 17:03:32 49° ESE 17:07:14 10° NNE
ATLAS 3B R/B 2.9 17:03:22 44° WNW 17:03:41 44° WNW 17:09:56 10° N
In-Cosmos 22 Rocket 4.5 16:58:30 10° S 17:03:58 66° ESE 17:09:29 10° NNE
Cosmos 1408 4.0 17:02:36 10° S 17:06:09 39° ESE 17:09:38 10° NNE
USA 308 2.7 17:08:30 79° W 17:08:41 83° SW 17:13:03 10° SE
SL-4 R/B 3.6 17:10:31 23° S 17:10:31 23° S 17:13:36 10° SE
ATLAS 2AS CENTAUR R/B 3.8 17:10:41 22° SSW 17:10:41 22° SSW 17:15:33 10° SSE
Cosmos 614 Rocket 3.9 17:11:21 17° NNW 17:15:29 77° WSW 17:20:49 10° SSE
X-37B 2.8 17:16:52 19° N 17:17:57 22° NNE 17:20:33 10° E
Cosmos 2237 Rocket 2.2 17:16:15 15° SSW 17:21:11 86° ESE 17:26:55 10° NNE
IRAS Rocket 4.3 17:18:19 10° SSE 17:23:54 78° ENE 17:29:24 10° NNW
CZ-4B DEB 4.3 17:21:10 10° NNE 17:26:45 81° ESE 17:32:23 10° SSW
SJ-7 4.5 17:26:23 10° N 17:30:18 49° W 17:31:20 39° SW
Cosmos 405 Rocket 4.4 17:27:48 10° S 17:31:33 37° ESE 17:35:18 10° NE
Cosmos 389 Rocket 4.2 17:28:34 10° NNE 17:31:43 34° E 17:34:54 10° SSE
Okean O Rocket 3.1 17:27:50 10° NE 17:31:51 37° ESE 17:35:56 10° S
Meteor 2-10 Rocket 3.4 17:26:41 10° NNW 17:31:57 74° W 17:37:06 10° S
Cosmos 2227 Rocket 2.3 17:26:50 10° NNW 17:32:30 81° ENE 17:38:15 10° SSE
NOAA 6 4.0 17:27:19 10° NNE 17:32:33 84° WNW 17:37:50 10° SSW
Cosmos 1953 Rocket 3.5 17:28:07 10° S 17:32:43 82° W 17:37:14 10° N
CZ-2C R/B 4.4 17:27:36 10° NE 17:32:56 43° ESE 17:38:05 10° S
Cosmos 2098 Rocket 3.5 17:31:01 10° S 17:34:26 53° E 17:38:31 10° NNE
H-2A R/B 4.0 17:31:04 10° NE 17:35:10 39° ESE 17:39:11 10° S
Meteor 2-13 Rocket 4.5 17:29:50 10° SSW 17:35:50 56° W 17:41:44 10° NNW
Cosmos 407 Rocket 3.5 17:30:52 10° NNW 17:36:12 86° ENE 17:41:32 10° SSE
Cosmos 2297 Rocket 2.1 17:30:34 10° NNW 17:36:15 74° WSW 17:41:59 10° SSE
Cosmos 1825 Rocket 3.7 17:33:22 18° SSW 17:36:19 47° W 17:40:30 10° NNW
COSMOS 2428 3.6 17:36:51 26° WNW 17:36:51 26° WNW 17:41:23 10° NNW
CZ-4B R/B 4.0 17:33:24 10° NNW 17:36:04 27° WNW 17:36:04 27° WNW
Cosmos 1455 2.2 17:33:33 10° N 17:37:26 85° ENE 17:41:24 10° S
NOAA 12 4.1 17:33:48 10° NNE 17:39:09 83° WNW 17:44:36 10° SSW
AQUARIUS 4.3 17:35:13 10° NNE 17:39:44 76° ESE 17:44:19 10° S
MOS 1 Rocket 4.0 17:35:09 10° SSE 17:40:32 69° E 17:45:59 10° N
USA 215 3.3 17:41:21 10° SE 17:47:55 67° SW 17:54:17 11° WNW
Cosmos 1092 Rocket 4.3 17:43:52 10° S 17:50:19 76° E 17:56:41 10° NNE
USA 305 3.5 17:49:06 27° W 17:50:57 41° SSW 17:55:05 10° SE
H-2A R/B 3.5 17:48:25 10° SSE 17:52:25 41° E 17:56:25 10° N
Cosmos 1825 2.1 17:51:30 10° S 17:55:21 84° W 17:59:09 10° N
Nadezhda 4 Rocket 4.0 17:49:11 10° SSW 17:55:23 61° W 18:01:36 10° N
Envisat 4.0 17:52:49 10° NNW 17:56:56 24° W 18:00:20 13° SW
Cosmos 2058 Rocket 3.1 17:54:02 10° NNW 17:58:31 60° W 18:03:01 10° S
DELTA 2 R/B (1) 4.5 17:53:11 10° NW 17:58:31 46° NNE 18:03:53 10° E
H-2A R/B 3.7 17:55:58 10° NE 18:00:56 36° ESE 18:05:55 10° S
Cosmos 1954 Rocket 4.5 17:56:19 10° N 18:01:37 67° ENE 18:06:58 10° SSE
Cosmos 2219 Rocket 4.1 18:07:38 10° WNW 18:07:38 10° WNW 18:07:55 10° WNW
Cosmos 2026 Rocket 4.1 18:01:10 10° S 18:07:32 81° E 18:13:43 10° N
FALCON 9 DEB 4.1 18:06:57 14° SW 18:09:45 41° SSE 18:13:05 10° ENE
USA 306 3.8 18:07:29 17° W 18:10:10 33° SSW 18:14:09 10° SE
COSMOS 2455 2.9 18:04:55 10° NW 18:10:54 65° WSW 18:16:57 10° SSE
Cosmos 2219 3.5 18:06:17 10° NW 18:11:48 45° WSW 18:17:21 10° SSE
PAYLOAD B 4.5 18:07:58 10° N 18:13:25 51° W 18:18:58 10° SSW
CZ-3 R/B 4.0 18:06:11 10° NW 18:13:48 18° N 18:17:51 10° NE
SMAP 3.6 18:13:36 10° NNW 18:17:58 38° W 18:22:23 10° SSW
USA 267 3.4 18:13:56 10° NE 18:20:30 84° SE 18:27:07 10° SW
Timation 1 Rocket 4.3 18:14:53 10° NNW 18:20:53 73° WSW 18:26:59 10° SSE
Meteor 2-19 Rocket 4.4 18:14:53 10° SSW 18:21:00 70° W 18:27:03 10° N
Lacrosse 5 rocket 1.3 18:17:11 10° SW 18:21:18 78° SE 18:25:09 10° NE
Cosmos 1939 Rocket 3.0 18:19:00 10° N 18:22:48 50° W 18:26:43 10° SSW
CZ-4C R/B 3.6 18:19:56 10° S 18:23:20 37° WSW 18:26:37 10° NW
Cosmos 1633 3.6 18:20:09 10° S 18:23:46 50° E 18:27:19 10° NNE
ASTEX 1 4.5 18:20:08 10° SSW 18:24:01 23° WSW 18:27:53 10° NW
ASTRO F (AKARI) 4.2 18:23:55 10° NNE 18:27:10 81° WNW 18:30:22 10° SSW
Cosmos 1356 4.0 18:24:22 10° SSW 18:27:35 35° W 18:30:45 10° NNW
SKYMED 2 3.6 18:23:19 10° SSE 18:27:46 89° WSW 18:32:09 10° NNW
SL-16 R/B 2.2 18:24:30 10° SSW 18:30:15 76° WNW 18:35:56 10° NNE
ERBS 2.4 18:28:33 10° WNW 18:31:51 53° SW 18:35:11 10° SE
CZ-4B R/B 3.6 18:30:00 10° N 18:35:24 47° W 18:40:48 10° SSW
USA 307 4.1 18:31:54 10° W 18:35:38 27° SSW 18:39:22 10° SE
CZ-2C R/B 4.3 18:30:45 10° SSE 18:35:54 40° E 18:40:53 10° NNE
Cosmos 2263 Rocket 3.5 18:32:42 10° N 18:38:10 48° ENE 18:43:39 10° SE
CREW DRAGON DEMO-1 DEB 3.4 18:37:15 10° W 18:39:45 31° SSW 18:42:16 10° SE
Cosmos 1408 4.5 18:39:00 10° WSW 18:40:42 13° W 18:42:22 10° WNW
Cosmos 1140 Rocket 4.4 18:42:01 10° WNW 18:46:31 28° WSW 18:51:03 10° S
Feng Yun 1-1 Rocket 4.5 18:42:16 10° N 18:48:11 78° WNW 18:54:13 10° SSW
USA 229 DEB 3.9 18:42:18 10° SSW 18:49:08 71° SE 18:55:32 10° NE
USA 229 3.9 18:42:24 10° SSW 18:49:14 71° SE 18:55:37 10° NE
